Charles City, IA

5:43 PM CDT on September 24, 2016 (GMT -0500)
Charles City Municipal

Weather History for KCCY - February, 2013

Change the Weather History Date:

Wednesday, February 27, 2013

  Actual Average Record
Temperature  
Mean Temperature 30 °F -  
Max Temperature 33 °F 37 °F 59 °F (2016)
Min Temperature 28 °F 20 °F -20 °F (2015)
Degree Days  
Heating Degree Days 34    
Moisture  
Dew Point 26 °F    
Average Humidity 85    
Maximum Humidity 93    
Minimum Humidity 75    
Precipitation  
Precipitation 0.00 in - - ()
Sea Level Pressure  
Sea Level Pressure 29.80 in    
Wind  
Wind Speed 15 mph (NNW)    
Max Wind Speed 23 mph    
Max Gust Speed 30 mph    
Visibility 6 miles    
Events Rain , Snow    
Averages and records for this station are not official NWS values.
T = Trace of Precipitation, MM = Missing Value Source: NWS Daily Summary

Daily Weather History Graph

Daily Weather History Graph

Search for Another Location

Airport or City:

Trip Planner

Search our weather history database for the weather conditions in past years. The results will help you decide how hot, cold, wet, or windy it might be!

Date:

Astronomy

Feb. 27, 2013 Rise Set
Actual Time 6:49 AM CST 5:57 PM CST
Civil Twilight 6:20 AM CST 6:26 PM CST
Nautical Twilight 5:47 AM CST 6:59 PM CST
Astronomical Twilight 5:15 AM CST 7:32 PM CST
Moon 8:24 PM CST (2/27) 7:20 AM CST (2/27)
Length of Visible Light 12h 05m
Length of Day
11h 08m
Waning Gibbous, 96% of the Moon is Illuminated
Feb 27
Waning Gibbous
Mar 4
Last Quarter
Mar 11
New
Mar 19
First Quarter
Mar 27
Full

Hourly Weather History & Observations

Time (CST) Temp. Windchill Dew Point Humidity Pressure Visibility Wind Dir Wind Speed Gust Speed Precip Events Conditions
12:15 AM 30.2 °F 21.3 °F 28.4 °F 93% 29.76 in 1.5 mi North 10.4 mph - N/A Snow Light Snow
12:35 AM 30.2 °F 21.9 °F 28.4 °F 93% 29.76 in 1.2 mi North 9.2 mph - N/A Snow Light Snow
12:55 AM 30.2 °F 21.3 °F 28.4 °F 93% 29.76 in 1.5 mi North 10.4 mph - N/A Snow Light Snow
1:15 AM 30.2 °F 21.3 °F 28.4 °F 93% 29.76 in 1.8 mi North 10.4 mph - N/A Snow Light Snow
1:35 AM 30.2 °F 20.2 °F 28.4 °F 93% 29.76 in 1.0 mi North 12.7 mph - N/A Snow Light Snow
1:55 AM 30.2 °F 20.2 °F 28.4 °F 93% 29.76 in 2.0 mi North 12.7 mph - N/A Snow Light Snow
2:15 AM 30.2 °F 20.2 °F 26.6 °F 86% 29.76 in 3.0 mi North 12.7 mph - N/A Snow Light Snow
2:35 AM 30.2 °F 20.8 °F 26.6 °F 86% 29.75 in 1.0 mi North 11.5 mph - N/A Snow Light Snow
2:55 AM 30.2 °F 21.3 °F 28.4 °F 93% 29.75 in 1.2 mi North 10.4 mph - N/A Snow Light Snow
3:15 AM 30.2 °F 20.8 °F 28.4 °F 93% 29.75 in 1.2 mi North 11.5 mph - N/A Snow Light Snow
3:35 AM 30.2 °F 20.2 °F 28.4 °F 93% 29.75 in 1.2 mi North 12.7 mph - N/A Snow Light Snow
3:55 AM 30.2 °F 18.9 °F 26.6 °F 86% 29.75 in 1.8 mi North 16.1 mph - N/A Snow Light Snow
4:15 AM 28.4 °F 17.0 °F 26.6 °F 93% 29.75 in 1.8 mi North 15.0 mph - N/A Snow Light Snow
4:35 AM 28.4 °F 18.0 °F 26.6 °F 93% 29.76 in 1.2 mi North 12.7 mph 18.4 mph N/A Snow Light Snow
4:55 AM 28.4 °F 17.5 °F 26.6 °F 93% 29.75 in 1.0 mi North 13.8 mph - N/A Snow Light Snow
5:15 AM 28.4 °F 18.0 °F 26.6 °F 93% 29.76 in 1.0 mi North 12.7 mph - N/A Snow Light Snow
5:35 AM 28.4 °F 17.5 °F 26.6 °F 93% 29.75 in 1.0 mi North 13.8 mph - N/A Snow Light Snow
5:55 AM 28.4 °F 17.5 °F 26.6 °F 93% 29.76 in 2.0 mi North 13.8 mph - N/A   Overcast
6:15 AM 28.4 °F 17.5 °F 24.8 °F 86% 29.76 in 5.0 mi North 13.8 mph - N/A Rain Light Freezing Rain
6:35 AM 28.4 °F 17.0 °F 26.6 °F 93% 29.76 in 0.8 mi North 15.0 mph - N/A Snow Light Snow
6:55 AM 28.4 °F 17.0 °F 24.8 °F 86% 29.76 in 4.0 mi North 15.0 mph - N/A Snow Light Snow
7:15 AM 28.4 °F 15.8 °F 23.0 °F 80% 29.76 in 10.0 mi North 18.4 mph - N/A   Light Freezing Rain
7:35 AM 28.4 °F 16.2 °F 23.0 °F 80% 29.76 in 10.0 mi North 17.3 mph - N/A   Light Freezing Rain
7:55 AM 28.4 °F 17.0 °F 23.0 °F 80% 29.77 in 10.0 mi North 15.0 mph - N/A   Light Freezing Rain
8:15 AM 28.4 °F 17.0 °F 23.0 °F 80% 29.77 in 10.0 mi North 15.0 mph 21.9 mph N/A   Scattered Clouds
8:35 AM 28.4 °F 17.5 °F 23.0 °F 80% 29.77 in 10.0 mi North 13.8 mph - N/A   Scattered Clouds
8:55 AM 28.4 °F 17.0 °F 23.0 °F 80% 29.77 in 10.0 mi North 15.0 mph - N/A   Mostly Cloudy
9:15 AM 28.4 °F 15.8 °F 23.0 °F 80% 29.77 in 10.0 mi North 18.4 mph - N/A   Overcast
9:35 AM 30.2 °F 18.1 °F 24.8 °F 80% 29.78 in 10.0 mi North 18.4 mph - N/A   Overcast
9:55 AM 30.2 °F 18.1 °F 24.8 °F 80% 29.79 in 10.0 mi North 18.4 mph - N/A   Mostly Cloudy
10:15 AM 30.2 °F 18.1 °F 24.8 °F 80% 29.79 in 10.0 mi North 18.4 mph 26.5 mph N/A   Mostly Cloudy
10:35 AM 30.2 °F 17.4 °F 24.8 °F 80% 29.79 in 10.0 mi North 20.7 mph - N/A   Scattered Clouds
10:55 AM 30.2 °F 17.8 °F 24.8 °F 80% 29.79 in 10.0 mi North 19.6 mph - N/A   Partly Cloudy
11:15 AM 30.2 °F 18.5 °F 24.8 °F 80% 29.79 in 10.0 mi North 17.3 mph 25.3 mph N/A   Scattered Clouds
11:35 AM 32.0 °F 20.5 °F 24.8 °F 75% 29.79 in - NNW 18.4 mph - N/A   Overcast
12:15 PM 32.0 °F 21.2 °F 24.8 °F 75% 29.79 in 10.0 mi NNW 16.1 mph 24.2 mph N/A   Overcast
12:35 PM 32.0 °F 20.1 °F 26.6 °F 80% 29.78 in 10.0 mi NNW 19.6 mph - N/A   Overcast
12:55 PM 32.0 °F 20.1 °F 26.6 °F 80% 29.78 in 10.0 mi NNW 19.6 mph 27.6 mph N/A   Overcast
1:15 PM 32.0 °F 19.8 °F 26.6 °F 80% 29.78 in 10.0 mi NNW 20.7 mph - N/A   Overcast
1:35 PM 32.0 °F 20.1 °F 26.6 °F 80% 29.78 in 10.0 mi NNW 19.6 mph 28.8 mph N/A   Overcast
1:55 PM 32.0 °F 19.5 °F 26.6 °F 80% 29.78 in 10.0 mi NNW 21.9 mph 28.8 mph N/A   Mostly Cloudy
2:15 PM 32.0 °F 19.2 °F 26.6 °F 80% 29.78 in 3.0 mi North 23.0 mph - N/A   Mostly Cloudy
2:35 PM 32.0 °F 19.8 °F 26.6 °F 80% 29.79 in 2.5 mi NNW 20.7 mph 27.6 mph N/A   Scattered Clouds
2:55 PM 32.0 °F 20.5 °F 26.6 °F 80% 29.79 in 2.0 mi NNW 18.4 mph 26.5 mph N/A Snow Light Snow
3:15 PM 32.0 °F 20.5 °F 26.6 °F 80% 29.80 in 2.5 mi NNW 18.4 mph 26.5 mph N/A Snow Light Snow
3:35 PM 32.0 °F 19.8 °F 26.6 °F 80% 29.80 in 3.0 mi NNW 20.7 mph - N/A Snow Light Snow
3:55 PM 32.0 °F 19.8 °F 28.4 °F 87% 29.81 in 1.2 mi NNW 20.7 mph - N/A Snow Light Snow
4:15 PM 32.0 °F 20.5 °F 28.4 °F 87% 29.82 in 2.0 mi NNW 18.4 mph 29.9 mph N/A Snow Light Snow
4:35 PM 33.8 °F 22.8 °F 26.6 °F 75% 29.82 in 9.0 mi NNW 18.4 mph 24.2 mph N/A Rain Light Rain
4:55 PM 33.8 °F 22.8 °F 26.6 °F 75% 29.82 in 9.0 mi NNW 18.4 mph 24.2 mph N/A Rain Light Rain
5:15 PM 32.0 °F 20.8 °F 26.6 °F 80% 29.83 in 10.0 mi NNW 17.3 mph 26.5 mph N/A   Mostly Cloudy
5:35 PM 32.0 °F 20.5 °F 26.6 °F 80% 29.84 in 10.0 mi NNW 18.4 mph 25.3 mph N/A   Overcast
5:55 PM 32.0 °F 19.8 °F 26.6 °F 80% 29.84 in 5.0 mi NNW 20.7 mph - N/A   Overcast
6:15 PM 32.0 °F 20.5 °F 26.6 °F 80% 29.85 in 7.0 mi NNW 18.4 mph - N/A Rain Light Rain
6:35 PM 32.0 °F 20.5 °F 28.4 °F 87% 29.85 in 6.0 mi NNW 18.4 mph 24.2 mph N/A Rain Light Rain
6:55 PM 32.0 °F 20.5 °F 28.4 °F 87% 29.86 in 4.0 mi North 18.4 mph 25.3 mph N/A   Overcast
7:15 PM 32.0 °F 20.8 °F 28.4 °F 87% 29.87 in 2.5 mi North 17.3 mph - N/A Snow Light Snow
7:35 PM 32.0 °F 21.2 °F 28.4 °F 87% 29.87 in 5.0 mi North 16.1 mph - N/A   Overcast
8:15 PM 32.0 °F 22.1 °F 28.4 °F 87% 29.88 in 2.5 mi North 13.8 mph 20.7 mph N/A Snow Light Snow
8:35 PM 30.2 °F 19.8 °F 28.4 °F 93% 29.88 in 2.5 mi North 13.8 mph - N/A Snow Light Snow
8:55 PM 30.2 °F 19.3 °F 28.4 °F 93% 29.89 in 2.5 mi NNW 15.0 mph - N/A Snow Light Snow
9:15 PM 30.2 °F 19.8 °F 26.6 °F 86% 29.90 in 5.0 mi NNW 13.8 mph - N/A   Overcast
9:35 PM 30.2 °F 20.2 °F 26.6 °F 86% 29.91 in 10.0 mi NNW 12.7 mph - N/A   Overcast
9:55 PM 30.2 °F 18.1 °F 26.6 °F 86% 29.91 in 10.0 mi NNW 18.4 mph - N/A Rain Light Freezing Rain
10:35 PM 30.2 °F 18.9 °F 26.6 °F 86% 29.92 in 8.0 mi North 16.1 mph - N/A Rain Light Freezing Rain
10:55 PM 30.2 °F 18.9 °F 24.8 °F 80% 29.92 in 9.0 mi North 16.1 mph - N/A Rain Light Freezing Rain
11:15 PM 30.2 °F 18.1 °F 24.8 °F 80% 29.92 in 10.0 mi North 18.4 mph - N/A Rain Light Freezing Rain
11:35 PM 30.2 °F 19.8 °F 26.6 °F 86% 29.93 in 8.0 mi North 13.8 mph - N/A Rain Light Freezing Rain
11:55 PM 30.2 °F 19.8 °F 24.8 °F 80% 29.92 in 10.0 mi North 13.8 mph - N/A   Overcast